Location: Morgantown
(40.9734°N, 80.6323°W)
Time: 22:54:21
(UTC+00:00)

Cosmos 1745 Rocket - Pass Details

Date: 29 October 2020
Orbit: 953 x 997 km, 83.0° (Epoch: 03 December)

Event Time Altitude Azimuth Distance (km) Brightness Sun altitude
Rises 23:22:33 0° 357° (N) 3,697 7.0 -12.1°
Reaches altitude 10° 23:25:10 10° 2° (N) 2,751 6.3 -12.6°
Maximum altitude 23:31:19 52° 79° (ENE) 1,212 4.1 -13.7°
Drops below altitude 10° 23:37:28 10° 155° (SSE) 2,754 6.2 -14.9°
Sets 23:40:04 0° 160° (SSE) 3,701 6.9 -15.4°
